| time (UTC) | temp C | wind direction | speed KPH | gust KPH | rain 1hr cm | rain 24hr cm | rain mn cm | humidity % | barometer mb |
| 20260502214520 | 10 | 124 | 1.6 | 9.7 | 0.00 | 0.03 | 0.03 | 88 | 1010.0 |
| 20260502213022 | 10 | 187 | 0.0 | 4.8 | 0.00 | 0.03 | 0.03 | 87 | 1010.0 |
| 20260502211519 | 10 | 142 | 1.6 | 6.4 | 0.00 | 0.03 | 0.03 | 86 | 1009.9 |
| 20260502210019 | 11 | 176 | 1.6 | 6.4 | 0.00 | 0.03 | 0.03 | 84 | 1009.9 |
| 20260502204518 | 11 | 184 | 3.2 | 6.4 | 0.00 | 0.03 | 0.03 | 83 | 1009.8 |
| 20260502203017 | 11 | 120 | 1.6 | 6.4 | 0.00 | 0.03 | 0.03 | 81 | 1010.1 |
| 20260502201516 | 11 | 178 | 3.2 | 11.3 | 0.00 | 0.03 | 0.03 | 83 | 1010.2 |
| 20260502200013 | 10 | 187 | 1.6 | 11.3 | 0.00 | 0.03 | 0.03 | 88 | 1010.3 |
| 20260502194527 | 10 | 143 | 4.8 | 11.3 | 0.00 | 0.03 | 0.03 | 87 | 1010.4 |
| 20260502193011 | 10 | 184 | 4.8 | 9.7 | 0.00 | 0.03 | 0.03 | 87 | 1010.6 |
| 20260502191510 | 10 | 204 | 3.2 | 8.0 | 0.00 | 0.03 | 0.03 | 87 | 1010.7 |
| 20260502190011 | 10 | 191 | 3.2 | 11.3 | 0.00 | 0.03 | 0.03 | 87 | 1010.7 |
| 20260502184508 | 10 | 176 | 1.6 | 8.0 | 0.00 | 0.03 | 0.03 | 88 | 1010.9 |
| 20260502183008 | 10 | 168 | 3.2 | 8.0 | 0.00 | 0.03 | 0.03 | 88 | 1010.9 |
| 20260502181518 | 10 | 198 | 3.2 | 8.0 | 0.00 | 0.03 | 0.03 | 89 | 1011.1 |
| 20260502163106 | 10 | 177 | 0.0 | 6.4 | 0.00 | 0.03 | 0.03 | 86 | 1011.7 |
| 20260502161607 | 10 | 220 | 1.6 | 4.8 | 0.00 | 0.03 | 0.03 | 86 | 1011.4 |
| 20260502151630 | 9 | 201 | 1.6 | 6.4 | 0.03 | 0.03 | 0.03 | 88 | 1012.1 |
| 20260502150103 | 9 | 184 | 3.2 | 9.7 | 0.03 | 0.03 | 0.03 | 87 | 1012.1 |
| 20260502123051 | 10 | 184 | 0.0 | 4.8 | 0.00 | 0.00 | 0.00 | 83 | 1012.2 |
| 20260502121547 | 10 | 253 | 3.2 | 9.7 | 0.00 | 0.00 | 0.00 | 82 | 1012.7 |
| 20260502114541 | 10 | 289 | 0.0 | 3.2 | 0.00 | 0.00 | 0.00 | 83 | 1012.2 |
| 20260502113037 | 10 | 250 | 0.0 | 0.0 | 0.00 | 0.00 | 0.00 | 84 | 1012.1 |
| 20260502111538 | 9 | 172 | 0.0 | 1.6 | 0.00 | 0.00 | 0.00 | 85 | 1012.1 |
| 20260502110034 | 8 | 178 | 0.0 | 0.0 | 0.00 | 0.00 | 0.00 | 86 | 1011.9 |
| 20260502104536 | 8 | 178 | 0.0 | 0.0 | 0.00 | 0.00 | 0.00 | 87 | 1012.0 |
| 20260502103032 | 8 | 178 | 0.0 | 0.0 | 0.00 | 0.00 | 0.00 | 87 | 1011.8 |
| 20260502101532 | 7 | 178 | 0.0 | 0.0 | 0.00 | 0.00 | 0.00 | 86 | 1011.7 |
| 20260502091530 | 8 | 154 | 0.0 | 0.0 | 0.00 | 0.00 | 0.00 | 83 | 1011.7 |
| 20260502071522 | 8 | 155 | 0.0 | 1.6 | 0.00 | 0.00 | 0.00 | 82 | 1011.6 |
| 20260502070021 | 7 | 120 | 0.0 | 1.6 | 0.00 | 0.00 | 0.00 | 82 | 1011.9 |
| 20260502064518 | 7 | 120 | 0.0 | 1.6 | 0.00 | 0.00 | 0.00 | 81 | 1012.1 |
| 20260502063017 | 7 | 120 | 0.0 | 1.6 | 0.00 | 0.00 | 0.00 | 80 | 1011.5 |
| 20260502061528 | 8 | 120 | 0.0 | 1.6 | 0.00 | 0.00 | 0.00 | 79 | 1011.8 |
| 20260502060016 | 8 | 120 | 0.0 | 1.6 | 0.00 | 0.00 | 0.00 | 78 | 1011.8 |
| 20260502054511 | 8 | 120 | 0.0 | 1.6 | 0.00 | 0.00 | 0.00 | 77 | 1011.7 |
| 20260502053009 | 8 | 130 | 0.0 | 1.6 | 0.00 | 0.00 | 0.00 | 76 | 1012.0 |
| 20260502051517 | 8 | 154 | 0.0 | 1.6 | 0.00 | 0.00 | 0.00 | 76 | 1012.1 |
| 20260502050006 | 8 | 164 | 0.0 | 3.2 | 0.00 | 0.00 | 0.00 | 76 | 1012.4 |
| 20260502044504 | 8 | 109 | 0.0 | 1.6 | 0.00 | 0.00 | 0.00 | 74 | 1012.3 |
| 20260502043002 | 9 | 34 | 0.0 | 1.6 | 0.00 | 0.00 | 0.00 | 73 | 1012.3 |
| 20260502041503 | 9 | 76 | 0.0 | 1.6 | 0.00 | 0.00 | 0.00 | 74 | 1012.2 |
| 20260502040100 | 9 | 250 | 0.0 | 1.6 | 0.00 | 0.00 | 0.00 | 73 | 1012.3 |
| 20260502034558 | 9 | 260 | 0.0 | 3.2 | 0.00 | 0.00 | 0.00 | 73 | 1012.4 |
| 20260502033058 | 9 | 221 | 0.0 | 0.0 | 0.00 | 0.00 | 0.00 | 72 | 1012.5 |
| 20260502031601 | 9 | 220 | 0.0 | 1.6 | 0.00 | 0.00 | 0.00 | 71 | 1012.4 |
| 20260502030109 | 9 | 14 | 0.0 | 1.6 | 0.00 | 0.00 | 0.00 | 71 | 1012.5 |
| 20260502024604 | 10 | 286 | 0.0 | 1.6 | 0.00 | 0.00 | 0.00 | 70 | 1012.4 |
| 20260502023055 | 10 | 205 | 0.0 | 1.6 | 0.00 | 0.00 | 0.00 | 69 | 1012.4 |
| 20260502021602 | 10 | 312 | 0.0 | 4.8 | 0.00 | 0.00 | 0.00 | 68 | 1012.3 |
| 20260502020054 | 10 | 284 | 1.6 | 4.8 | 0.00 | 0.00 | 0.00 | 68 | 1012.3 |
| 20260502014553 | 10 | 316 | 0.0 | 6.4 | 0.00 | 0.00 | 0.00 | 68 | 1012.3 |
| 20260502013053 | 10 | 285 | 0.0 | 8.0 | 0.00 | 0.00 | 0.00 | 67 | 1012.3 |
| 20260502011553 | 10 | 310 | 1.6 | 11.3 | 0.00 | 0.00 | 0.00 | 66 | 1012.4 |
| 20260502010106 | 11 | 322 | 4.8 | 11.3 | 0.00 | 0.00 | 0.00 | 66 | 1012.2 |
| 20260502004556 | 11 | 273 | 4.8 | 14.5 | 0.00 | 0.00 | 0.00 | 65 | 1012.1 |
| 20260502003048 | 11 | 255 | 1.6 | 11.3 | 0.00 | 0.00 | 0.00 | 63 | 1011.8 |
| 20260502001545 | 11 | 353 | 3.2 | 9.7 | 0.00 | 0.00 | 0.00 | 63 | 1011.4 |
| 20260502000045 | 11 | 246 | 3.2 | 11.3 | 0.00 | 0.00 | 0.00 | 64 | 1011.2 |
| 20260501234546 | 12 | 291 | 3.2 | 9.7 | 0.00 | 0.00 | 0.00 | 62 | 1010.8 |
| 20260501233043 | 12 | 305 | 1.6 | 6.4 | 0.00 | 0.00 | 0.00 | 59 | 1010.7 |
| 20260501231543 | 13 | 307 | 1.6 | 24.1 | 0.00 | 0.00 | 0.00 | 54 | 1010.5 |
| 20260501230046 | 13 | 277 | 1.6 | 8.0 | 0.00 | 0.00 | 0.00 | 42 | 1010.2 |
| 20260501224542 | 14 | 294 | 3.2 | 14.5 | 0.00 | 0.00 | 0.00 | 41 | 1010.2 |
| 20260501223043 | 14 | 277 | 4.8 | 12.9 | 0.00 | 0.00 | 0.00 | 39 | 1010.0 |
| 20260501221540 | 15 | 315 | 4.8 | 11.3 | 0.00 | 0.00 | 0.00 | 39 | 1010.1 |
| 20260501220045 | 15 | 284 | 4.8 | 14.5 | 0.00 | 0.00 | 0.00 | 37 | 1010.1 |